| time (UTC) | temp F | wind direction | speed knots | gust knots | rain 1hr in | rain 24hr in | rain mn in | humidity % | barometer mb |
| 20260505023015 | 56 | 360 | 2.6 | 9.6 | 0.00 | 0.00 | 0.00 | 44 | 1007.7 |
| 20260505022507 | 56 | 340 | 2.6 | 12.2 | 0.00 | 0.00 | 0.00 | 44 | 1007.5 |
| 20260505022004 | 57 | 325 | 3.5 | 13.9 | 0.00 | 0.00 | 0.00 | 44 | 1007.8 |
| 20260505021516 | 57 | 340 | 6.1 | 13.9 | 0.00 | 0.00 | 0.00 | 44 | 1007.6 |
| 20260505021006 | 57 | 311 | 3.5 | 12.2 | 0.00 | 0.00 | 0.00 | 45 | 1007.4 |
| 20260505020506 | 57 | 332 | 4.3 | 10.4 | 0.00 | 0.00 | 0.00 | 44 | 1007.4 |
| 20260505020010 | 57 | 316 | 4.3 | 11.3 | 0.00 | 0.00 | 0.00 | 45 | 1007.4 |
| 20260505015503 | 57 | 348 | 5.2 | 11.3 | 0.00 | 0.00 | 0.00 | 44 | 1007.4 |
| 20260505015003 | 57 | 340 | 4.3 | 11.3 | 0.00 | 0.00 | 0.00 | 44 | 1007.4 |
| 20260505014508 | 58 | 360 | 4.3 | 13.9 | 0.00 | 0.00 | 0.00 | 44 | 1007.2 |
| 20260505014012 | 58 | 5 | 5.2 | 13.9 | 0.00 | 0.00 | 0.00 | 44 | 1006.9 |
| 20260505013507 | 58 | 351 | 3.5 | 12.2 | 0.00 | 0.00 | 0.00 | 43 | 1007.0 |
| 20260505013008 | 59 | 5 | 4.3 | 12.2 | 0.00 | 0.00 | 0.00 | 41 | 1006.7 |
| 20260505012504 | 60 | 339 | 5.2 | 17.4 | 0.00 | 0.00 | 0.00 | 40 | 1006.8 |
| 20260505012009 | 60 | 352 | 4.3 | 17.4 | 0.00 | 0.00 | 0.00 | 40 | 1006.5 |
| 20260505011509 | 60 | 24 | 4.3 | 15.6 | 0.00 | 0.00 | 0.00 | 39 | 1006.5 |
| 20260505011005 | 61 | 360 | 4.3 | 19.1 | 0.00 | 0.00 | 0.00 | 39 | 1006.5 |
| 20260505010508 | 61 | 319 | 6.1 | 19.1 | 0.00 | 0.00 | 0.00 | 39 | 1006.4 |
| 20260505010018 | 62 | 5 | 5.2 | 12.2 | 0.00 | 0.00 | 0.00 | 39 | 1006.5 |
| 20260505005507 | 62 | 333 | 5.2 | 13.0 | 0.00 | 0.00 | 0.00 | 37 | 1006.4 |
| 20260505005007 | 63 | 331 | 2.6 | 13.0 | 0.00 | 0.00 | 0.00 | 37 | 1006.1 |
| 20260505004518 | 63 | 355 | 4.3 | 13.0 | 0.00 | 0.00 | 0.00 | 37 | 1006.0 |
| 20260505004002 | 64 | 31 | 2.6 | 14.8 | 0.00 | 0.00 | 0.00 | 36 | 1006.0 |
| 20260505003507 | 64 | 336 | 5.2 | 14.8 | 0.00 | 0.00 | 0.00 | 35 | 1005.9 |
| 20260505003021 | 64 | 360 | 3.5 | 12.2 | 0.00 | 0.00 | 0.00 | 35 | 1005.8 |
| 20260505002506 | 65 | 317 | 3.5 | 12.2 | 0.00 | 0.00 | 0.00 | 35 | 1005.7 |
| 20260505002007 | 66 | 360 | 4.3 | 13.0 | 0.00 | 0.00 | 0.00 | 36 | 1005.5 |
| 20260505001514 | 67 | 333 | 3.5 | 13.0 | 0.00 | 0.00 | 0.00 | 35 | 1005.4 |
| 20260505001006 | 67 | 312 | 3.5 | 10.4 | 0.00 | 0.00 | 0.00 | 35 | 1005.3 |
| 20260505000505 | 67 | 349 | 3.5 | 12.2 | 0.00 | 0.00 | 0.00 | 36 | 1005.3 |
| 20260505000019 | 68 | 305 | 4.3 | 13.0 | 0.00 | 0.00 | 0.00 | 35 | 1005.3 |
| 20260504235508 | 68 | 337 | 3.5 | 13.0 | 0.00 | 0.00 | 0.00 | 35 | 1005.3 |
| 20260504235012 | 68 | 346 | 5.2 | 12.2 | 0.00 | 0.00 | 0.00 | 34 | 1005.2 |
| 20260504234520 | 68 | 5 | 3.5 | 9.6 | 0.00 | 0.00 | 0.00 | 34 | 1005.2 |
| 20260504234006 | 69 | 348 | 3.5 | 8.7 | 0.00 | 0.00 | 0.00 | 34 | 1005.2 |
| 20260504233506 | 69 | 346 | 3.5 | 8.7 | 0.00 | 0.00 | 0.00 | 33 | 1005.2 |
| 20260504233014 | 69 | 352 | 3.5 | 8.7 | 0.00 | 0.00 | 0.00 | 35 | 1005.0 |
| 20260504232506 | 70 | 318 | 2.6 | 9.6 | 0.00 | 0.00 | 0.00 | 33 | 1004.8 |
| 20260504232006 | 70 | 343 | 3.5 | 14.8 | 0.00 | 0.00 | 0.00 | 33 | 1004.7 |
| 20260504231518 | 71 | 325 | 5.2 | 14.8 | 0.00 | 0.00 | 0.00 | 32 | 1004.5 |
| 20260504231008 | 72 | 322 | 5.2 | 14.8 | 0.00 | 0.00 | 0.00 | 31 | 1004.5 |
| 20260504230508 | 72 | 303 | 6.1 | 14.8 | 0.00 | 0.00 | 0.00 | 31 | 1004.4 |
| 20260504230020 | 73 | 350 | 4.3 | 10.4 | 0.00 | 0.00 | 0.00 | 30 | 1004.3 |
| 20260504225514 | 73 | 321 | 2.6 | 12.2 | 0.00 | 0.00 | 0.00 | 34 | 1004.0 |
| 20260504225006 | 73 | 325 | 5.2 | 12.2 | 0.00 | 0.00 | 0.00 | 30 | 1003.9 |
| 20260504224504 | 74 | 338 | 4.3 | 11.3 | 0.00 | 0.00 | 0.00 | 30 | 1003.7 |
| 20260504224003 | 74 | 327 | 4.3 | 10.4 | 0.00 | 0.00 | 0.00 | 32 | 1003.6 |
| 20260504223503 | 74 | 360 | 3.5 | 14.8 | 0.00 | 0.00 | 0.00 | 31 | 1003.5 |
| 20260504223005 | 74 | 307 | 4.3 | 14.8 | 0.00 | 0.00 | 0.00 | 33 | 1003.6 |
| 20260504222504 | 75 | 352 | 6.1 | 11.3 | 0.00 | 0.00 | 0.00 | 33 | 1003.4 |
| 20260504222003 | 75 | 337 | 3.5 | 10.4 | 0.00 | 0.00 | 0.00 | 32 | 1003.3 |
| 20260504221503 | 76 | 337 | 2.6 | 8.7 | 0.00 | 0.00 | 0.00 | 31 | 1003.2 |
| 20260504221007 | 77 | 14 | 3.5 | 8.7 | 0.00 | 0.00 | 0.00 | 30 | 1003.1 |
| 20260504220503 | 77 | 323 | 3.5 | 9.6 | 0.00 | 0.00 | 0.00 | 30 | 1003.0 |
| 20260504220003 | 76 | 333 | 3.5 | 11.3 | 0.00 | 0.00 | 0.00 | 31 | 1003.0 |
| 20260504215503 | 77 | 328 | 4.3 | 11.3 | 0.00 | 0.00 | 0.00 | 30 | 1003.0 |
| 20260504215007 | 77 | 326 | 4.3 | 11.3 | 0.00 | 0.00 | 0.00 | 30 | 1002.8 |
| 20260504214504 | 78 | 333 | 3.5 | 8.7 | 0.00 | 0.00 | 0.00 | 32 | 1002.9 |
| 20260504214003 | 78 | 115 | 1.7 | 8.7 | 0.00 | 0.00 | 0.00 | 30 | 1002.8 |
| 20260504213503 | 78 | 294 | 3.5 | 12.2 | 0.00 | 0.00 | 0.00 | 32 | 1002.8 |
| 20260504213005 | 78 | 348 | 5.2 | 12.2 | 0.00 | 0.00 | 0.00 | 29 | 1002.8 |
| 20260504212504 | 79 | 5 | 3.5 | 8.7 | 0.00 | 0.00 | 0.00 | 31 | 1002.7 |
| 20260504212004 | 79 | 334 | 2.6 | 7.8 | 0.00 | 0.00 | 0.00 | 33 | 1002.7 |
| 20260504211513 | 79 | 349 | 1.7 | 8.7 | 0.00 | 0.00 | 0.00 | 32 | 1002.6 |
| 20260504211003 | 79 | 342 | 2.6 | 10.4 | 0.00 | 0.00 | 0.00 | 34 | 1002.6 |
| 20260504210505 | 78 | 355 | 5.2 | 11.3 | 0.00 | 0.00 | 0.00 | 33 | 1002.6 |
| 20260504210011 | 79 | 329 | 4.3 | 11.3 | 0.00 | 0.00 | 0.00 | 32 | 1002.6 |
| 20260504205506 | 79 | 351 | 3.5 | 8.7 | 0.00 | 0.00 | 0.00 | 33 | 1002.6 |
| 20260504205004 | 79 | 340 | 2.6 | 7.0 | 0.00 | 0.00 | 0.00 | 36 | 1002.5 |
| 20260504204507 | 79 | 36 | 3.5 | 11.3 | 0.00 | 0.00 | 0.00 | 32 | 1002.5 |
| 20260504204004 | 79 | 346 | 2.6 | 11.3 | 0.00 | 0.00 | 0.00 | 34 | 1002.5 |
| 20260504203506 | 80 | 324 | 3.5 | 10.4 | 0.00 | 0.00 | 0.00 | 37 | 1002.5 |
| 20260504203004 | 80 | 327 | 1.7 | 7.8 | 0.00 | 0.00 | 0.00 | 38 | 1002.4 |
| 20260504202508 | 80 | 360 | 1.7 | 10.4 | 0.00 | 0.00 | 0.00 | 37 | 1002.4 |
| 20260504202004 | 80 | 347 | 2.6 | 10.4 | 0.00 | 0.00 | 0.00 | 37 | 1002.4 |
| 20260504201505 | 80 | 301 | 5.2 | 9.6 | 0.00 | 0.00 | 0.00 | 37 | 1002.4 |
| 20260504201009 | 79 | 154 | 2.6 | 9.6 | 0.00 | 0.00 | 0.00 | 35 | 1002.4 |
| 20260504200506 | 80 | 360 | 2.6 | 9.6 | 0.00 | 0.00 | 0.00 | 36 | 1002.4 |
| 20260504200006 | 80 | 326 | 5.2 | 9.6 | 0.00 | 0.00 | 0.00 | 36 | 1002.4 |
| 20260504195507 | 80 | 360 | 2.6 | 7.8 | 0.00 | 0.00 | 0.00 | 36 | 1002.4 |
| 20260504195003 | 80 | 304 | 1.7 | 13.0 | 0.00 | 0.00 | 0.00 | 36 | 1002.3 |
| 20260504194521 | 80 | 349 | 6.1 | 13.0 | 0.00 | 0.00 | 0.00 | 36 | 1002.3 |
| 20260504194004 | 80 | 335 | 4.3 | 12.2 | 0.00 | 0.00 | 0.00 | 37 | 1002.2 |
| 20260504193507 | 80 | 306 | 4.3 | 12.2 | 0.00 | 0.00 | 0.00 | 37 | 1002.2 |
| 20260504193019 | 80 | 342 | 3.5 | 10.4 | 0.00 | 0.00 | 0.00 | 37 | 1002.2 |
| 20260504192504 | 81 | 313 | 3.5 | 9.6 | 0.00 | 0.00 | 0.00 | 39 | 1002.2 |
| 20260504192004 | 80 | 5 | 2.6 | 11.3 | 0.00 | 0.00 | 0.00 | 35 | 1002.1 |
| 20260504191520 | 80 | 302 | 6.1 | 11.3 | 0.00 | 0.00 | 0.00 | 33 | 1002.1 |
| 20260504191006 | 81 | 360 | 5.2 | 10.4 | 0.00 | 0.00 | 0.00 | 35 | 1002.1 |
| 20260504190504 | 81 | 318 | 4.3 | 10.4 | 0.00 | 0.00 | 0.00 | 34 | 1002.0 |
| 20260504190011 | 81 | 10 | 4.3 | 10.4 | 0.00 | 0.00 | 0.00 | 33 | 1001.9 |
| 20260504185504 | 81 | 322 | 5.2 | 10.4 | 0.00 | 0.00 | 0.00 | 32 | 1001.8 |
| 20260504185005 | 82 | 311 | 3.5 | 9.6 | 0.00 | 0.00 | 0.00 | 34 | 1001.8 |
| 20260504184509 | 82 | 313 | 5.2 | 9.6 | 0.00 | 0.00 | 0.00 | 30 | 1001.8 |
| 20260504184009 | 82 | 323 | 3.5 | 12.2 | 0.00 | 0.00 | 0.00 | 32 | 1001.7 |
| 20260504183508 | 82 | 327 | 2.6 | 12.2 | 0.00 | 0.00 | 0.00 | 32 | 1001.7 |
| 20260504183006 | 82 | 325 | 2.6 | 9.6 | 0.00 | 0.00 | 0.00 | 35 | 1001.6 |
| 20260504182505 | 81 | 319 | 4.3 | 9.6 | 0.00 | 0.00 | 0.00 | 33 | 1001.7 |
| 20260504182011 | 79 | 290 | 1.7 | 8.7 | 0.00 | 0.00 | 0.00 | 36 | 1001.7 |
| 20260504181506 | 80 | 321 | 2.6 | 9.6 | 0.00 | 0.00 | 0.00 | 32 | 1001.7 |
| 20260504181004 | 80 | 313 | 5.2 | 9.6 | 0.00 | 0.00 | 0.00 | 32 | 1001.7 |
| 20260504180505 | 82 | 319 | 0.9 | 7.8 | 0.00 | 0.00 | 0.00 | 33 | 1001.7 |
| 20260504180010 | 82 | 302 | 2.6 | 7.8 | 0.00 | 0.00 | 0.00 | 35 | 1001.7 |
| 20260504175504 | 81 | 333 | 3.5 | 7.8 | 0.00 | 0.00 | 0.00 | 34 | 1001.8 |
| 20260504175005 | 80 | 319 | 1.7 | 7.0 | 0.00 | 0.00 | 0.00 | 34 | 1001.8 |
| 20260504174512 | 80 | 253 | 2.6 | 9.6 | 0.00 | 0.00 | 0.00 | 31 | 1001.8 |
| 20260504174006 | 80 | 327 | 3.5 | 11.3 | 0.00 | 0.00 | 0.00 | 33 | 1001.8 |
| 20260504173505 | 80 | 319 | 4.3 | 11.3 | 0.00 | 0.00 | 0.00 | 33 | 1001.9 |
| 20260504173015 | 80 | 321 | 5.2 | 9.6 | 0.00 | 0.00 | 0.00 | 33 | 1002.0 |
| 20260504172507 | 80 | 282 | 3.5 | 13.9 | 0.00 | 0.00 | 0.00 | 34 | 1001.9 |
| 20260504172002 | 80 | 328 | 5.2 | 13.9 | 0.00 | 0.00 | 0.00 | 33 | 1001.9 |
| 20260504171512 | 80 | 314 | 5.2 | 10.4 | 0.00 | 0.00 | 0.00 | 35 | 1002.1 |
| 20260504171008 | 80 | 300 | 3.5 | 7.8 | 0.00 | 0.00 | 0.00 | 38 | 1002.1 |
| 20260504170510 | 78 | 240 | 0.9 | 7.8 | 0.00 | 0.00 | 0.00 | 37 | 1002.0 |
| 20260504151014 | 70 | 309 | 3.5 | 6.1 | 0.00 | 0.00 | 0.00 | 46 | 1002.2 |
| 20260504150507 | 70 | 324 | 1.7 | 6.1 | 0.00 | 0.00 | 0.00 | 44 | 1002.2 |
| 20260504141007 | 64 | 355 | 2.6 | 4.3 | 0.00 | 0.00 | 0.00 | 51 | 1002.6 |
| 20260504140511 | 64 | 302 | 1.7 | 5.2 | 0.00 | 0.00 | 0.00 | 55 | 1002.7 |
| 20260504130503 | 56 | 346 | 0.0 | 2.6 | 0.00 | 0.00 | 0.00 | 71 | 1002.5 |
| 20260504110506 | 47 | 277 | 0.0 | 0.0 | 0.00 | 0.00 | 0.00 | 82 | 1002.8 |
| 20260504100505 | 48 | 277 | 0.0 | 0.0 | 0.00 | 0.00 | 0.00 | 81 | 1002.7 |
| 20260504081513 | 50 | 277 | 0.0 | 0.0 | 0.00 | 0.00 | 0.00 | 75 | 1004.0 |
| 20260504081003 | 50 | 277 | 0.0 | 0.0 | 0.00 | 0.00 | 0.00 | 77 | 1004.1 |
| 20260504080511 | 50 | 277 | 0.0 | 0.0 | 0.00 | 0.00 | 0.00 | 78 | 1004.2 |
| 20260504050511 | 56 | 277 | 0.0 | 0.0 | 0.00 | 0.00 | 0.00 | 62 | 1006.8 |
| 20260504050016 | 56 | 277 | 0.0 | 0.0 | 0.00 | 0.00 | 0.00 | 61 | 1006.7 |
| 20260504045505 | 56 | 277 | 0.0 | 0.0 | 0.00 | 0.00 | 0.00 | 63 | 1006.8 |
| 20260504045007 | 56 | 277 | 0.0 | 0.0 | 0.00 | 0.00 | 0.00 | 63 | 1006.8 |
| 20260504044522 | 56 | 277 | 0.0 | 0.0 | 0.00 | 0.00 | 0.00 | 62 | 1006.9 |
| 20260504044007 | 56 | 277 | 0.0 | 0.0 | 0.00 | 0.00 | 0.00 | 63 | 1006.9 |
| 20260504043507 | 57 | 277 | 0.0 | 0.0 | 0.00 | 0.00 | 0.00 | 61 | 1007.0 |
| 20260504043025 | 57 | 277 | 0.0 | 0.0 | 0.00 | 0.00 | 0.00 | 60 | 1007.0 |
| 20260504042504 | 58 | 277 | 0.0 | 0.0 | 0.00 | 0.00 | 0.00 | 59 | 1007.0 |
| 20260504042007 | 58 | 277 | 0.0 | 0.0 | 0.00 | 0.00 | 0.00 | 57 | 1007.0 |
| 20260504041519 | 58 | 277 | 0.0 | 0.0 | 0.00 | 0.00 | 0.00 | 58 | 1007.1 |
| 20260504041007 | 59 | 277 | 0.0 | 0.0 | 0.00 | 0.00 | 0.00 | 57 | 1007.1 |
| 20260504040505 | 59 | 277 | 0.0 | 0.0 | 0.00 | 0.00 | 0.00 | 55 | 1007.2 |
| 20260504040015 | 59 | 277 | 0.0 | 0.0 | 0.00 | 0.00 | 0.00 | 56 | 1007.3 |
| 20260504035511 | 59 | 277 | 0.0 | 0.0 | 0.00 | 0.00 | 0.00 | 56 | 1007.4 |
| 20260504035010 | 58 | 277 | 0.0 | 0.0 | 0.00 | 0.00 | 0.00 | 58 | 1007.4 |
| 20260504034516 | 58 | 277 | 0.0 | 0.0 | 0.00 | 0.00 | 0.00 | 58 | 1007.4 |
| 20260504034010 | 58 | 277 | 0.0 | 0.0 | 0.00 | 0.00 | 0.00 | 59 | 1007.5 |
| 20260504033506 | 59 | 277 | 0.0 | 0.0 | 0.00 | 0.00 | 0.00 | 58 | 1007.6 |
| 20260504033022 | 59 | 277 | 0.0 | 0.0 | 0.00 | 0.00 | 0.00 | 58 | 1007.6 |
| 20260504032506 | 59 | 277 | 0.0 | 0.0 | 0.00 | 0.00 | 0.00 | 58 | 1007.5 |
| 20260504032008 | 60 | 277 | 0.0 | 0.0 | 0.00 | 0.00 | 0.00 | 56 | 1007.5 |
| 20260504031506 | 60 | 277 | 0.0 | 0.0 | 0.00 | 0.00 | 0.00 | 54 | 1007.6 |
| 20260504031002 | 61 | 277 | 0.0 | 0.0 | 0.00 | 0.00 | 0.00 | 53 | 1007.6 |
| 20260504030506 | 60 | 277 | 0.0 | 0.0 | 0.00 | 0.00 | 0.00 | 53 | 1007.6 |
| 20260504030007 | 61 | 277 | 0.0 | 0.0 | 0.00 | 0.00 | 0.00 | 54 | 1007.6 |
| 20260504025504 | 61 | 277 | 0.0 | 0.0 | 0.00 | 0.00 | 0.00 | 51 | 1007.7 |
| 20260504025005 | 62 | 277 | 0.0 | 0.0 | 0.00 | 0.00 | 0.00 | 52 | 1007.7 |
| 20260504024507 | 63 | 277 | 0.0 | 0.0 | 0.00 | 0.00 | 0.00 | 46 | 1007.7 |
| 20260504024006 | 64 | 277 | 0.0 | 0.0 | 0.00 | 0.00 | 0.00 | 45 | 1007.7 |
| 20260504023503 | 64 | 277 | 0.0 | 0.0 | 0.00 | 0.00 | 0.00 | 44 | 1007.8 |